星链-32644 (STARLINK-32644)

导读

STARLINK-32644是美国SpaceX星链星座的卫星,于2024年11月30日发射。星链项目旨在搭建全球卫星互联网,为全球多地提供高速低延迟宽带服务,该卫星是星链组网过程中发射的卫星之一,后续将在近地轨道运行,助力扩展星链星座的服务覆盖范围与网络容量。

Basic Information
目录编号:
62151
目录名称:
STARLINK-32644
国际标识:
2024-224N
轨道中心:
EARTH
卫星名称:
星链-32644
卫星全名:
星链-32644 (STARLINK-32644)
卫星状态:
在轨 (已飞行643 天)
发射日期:
2024-11-30 UTC
国别 :
美国 (US)
星等 :
--
Orbit Information
数据来源 国际轨道数据
星历时间: 2026-09-04T13:39:48+0800
10小时前
查看轨道信息
半长轴: 6861.169km
偏心率: 0.0001294
轨道倾角: 42.999°
近地点辐角 280.778°
升交点赤经 229.999°
平近点角 79.293°
近地点: 482.144km
远地点: 483.92km
周期: 94.266分钟
每日圈数: 15.27586
Detailed Information
固有亮度:
5
最大亮度:
2.5
卫星平台:
Starlink V1.0
覆盖范围:
全球
运营商:
太空探索技术公司
运营商所在国:
美国
制造商(研发单位):
太空探索技术公司
制造商所在国:
美国
使用方式:
暂无
Satellite Introduction
Starlink 计划是 SpaceX 推出的全球卫星互联网项目,通过发射低轨道卫星,为全球尤其是偏远地区提供高速、低延迟的互联网服务。自 2019 年起,Starlink 已部署数千颗卫星,旨在缩小全球数字鸿沟,推动互联网普及。该项目还为军事、航空等行业提供通信支持,带来广泛经济效益。
2D Orbit Map
3D Orbit Map
Orbit Altitude Analysis Chart
Orbit Inclination Analysis Chart
Orbit Comprehensive Analysis Chart
View Comprehensive Chart
Conjunction Data List
Event ID Objects TCA Miss Dist (km) Collision Risk Probability Collision Risk Index (CRI) Action
CDM_260905-212405-930606-215121
2026-09-05T
21:24:30+0000
0.661 km
远距离
5.637348E-5 中风险 0.7
CDM_260906-150905-600706-215121
2026-09-06T
15:09:20+0000
0.758 km
远距离
4.376731E-5 中风险 0.68
CDM_260906-222505-628906-215121
2026-09-06T
22:25:58+0000
0.767 km
远距离
1.84532E-5 中风险 0.6
CDM_260906-133505-600706-215121
2026-09-06T
13:35:11+0000
1.192 km
极远距离
9.481344E-6 低风险 0.55
CDM_260906-060205-930606-215121
2026-09-06T
06:02:22+0000
1.229 km
极远距离
7.1571E-6 低风险 0.52
CDM_260906-073605-930606-215121
2026-09-06T
07:36:31+0000
1.719 km
极远距离
2.463082E-6 低风险 0.43
CDM_260906-231305-628906-215121
2026-09-06T
23:13:03+0000
1.411 km
极远距离
2.393879E-6 低风险 0.43
CDM_260905-195005-930606-215121
2026-09-05T
19:50:21+0000
1.777 km
极远距离
2.246504E-6 低风险 0.42
CDM_260904-121906-215106-728721
2026-09-04T
12:19:12+0000
2.548 km
极远距离
1.460428E-6 低风险 0.38
CDM_260906-164305-600706-215121
2026-09-06T
16:43:29+0000
2.569 km
极远距离
1.160074E-6 低风险 0.36